Time,TemperatureF,DewpointF,PressureIn,WindDirection,WindDirectionDegrees,WindSpeedMPH,WindSpeedGustMPH,Humidity,HourlyPrecipIn,Conditions,Clouds,dailyrainin,SoftwareType,DateUTC
2013-06-29 00:01:00,68.0,57.6,29.87,West,269,0.0,2.0,69,0.00,,,0.00,WUHU216DAVISVP2,2013-06-29 05:01:00,
2013-06-29 00:06:00,67.9,57.5,29.87,West,269,0.0,1.0,69,0.00,,,0.00,WUHU216DAVISVP2,2013-06-29 05:06:00,
2013-06-29 00:11:00,67.7,57.3,29.87,West,277,0.0,0.0,69,0.00,,,0.00,WUHU216DAVISVP2,2013-06-29 05:11:00,
2013-06-29 00:16:00,67.5,57.5,29.87,West,277,0.0,0.0,70,0.00,,,0.00,WUHU216DAVISVP2,2013-06-29 05:16:00,
2013-06-29 00:21:00,67.4,57.4,29.87,West,277,0.0,1.0,70,0.00,,,0.00,WUHU216DAVISVP2,2013-06-29 05:21:00,
2013-06-29 00:26:00,67.3,57.3,29.87,West,279,0.0,1.0,70,0.00,,,0.00,WUHU216DAVISVP2,2013-06-29 05:26:00,
2013-06-29 00:31:00,67.2,57.2,29.87,WNW,286,4.0,4.0,70,0.00,,,0.00,WUHU216DAVISVP2,2013-06-29 05:31:00,
2013-06-29 00:36:00,67.1,57.5,29.87,WNW,286,0.0,4.0,71,0.00,,,0.00,WUHU216DAVISVP2,2013-06-29 05:36:00,
2013-06-29 00:41:00,66.9,57.7,29.87,WNW,286,0.0,4.0,72,0.00,,,0.00,WUHU216DAVISVP2,2013-06-29 05:41:00,
2013-06-29 00:46:00,66.8,57.6,29.87,WNW,286,0.0,0.0,72,0.00,,,0.00,WUHU216DAVISVP2,2013-06-29 05:46:00,
2013-06-29 00:51:00,66.6,57.8,29.87,WNW,286,0.0,2.0,73,0.00,,,0.00,WUHU216DAVISVP2,2013-06-29 05:51:00,
2013-06-29 00:56:00,66.3,57.5,29.87,WNW,287,0.0,2.0,73,0.00,,,0.00,WUHU216DAVISVP2,2013-06-29 05:56:00,
2013-06-29 01:01:00,66.1,57.7,29.87,WNW,287,0.0,0.0,74,0.00,,,0.00,WUHU216DAVISVP2,2013-06-29 06:01:00,
2013-06-29 01:06:00,65.9,57.9,29.87,WNW,287,0.0,0.0,75,0.00,,,0.00,WUHU216DAVISVP2,2013-06-29 06:06:00,
2013-06-29 01:11:00,65.7,58.0,29.87,WNW,288,0.0,0.0,76,0.00,,,0.00,WUHU216DAVISVP2,2013-06-29 06:11:00,
2013-06-29 01:16:00,65.5,57.8,29.87,WNW,288,0.0,0.0,76,0.00,,,0.00,WUHU216DAVISVP2,2013-06-29 06:16:00,
2013-06-29 01:21:00,65.4,58.1,29.87,West,275,0.0,1.0,77,0.00,,,0.00,WUHU216DAVISVP2,2013-06-29 06:21:00,
2013-06-29 01:26:00,65.3,58.0,29.87,West,275,0.0,1.0,77,0.00,,,0.00,WUHU216DAVISVP2,2013-06-29 06:26:00,
2013-06-29 01:31:00,65.2,57.9,29.87,West,275,0.0,0.0,77,0.00,,,0.00,WUHU216DAVISVP2,2013-06-29 06:31:00,
2013-06-29 01:36:00,65.3,58.0,29.87,West,276,0.0,0.0,77,0.00,,,0.00,WUHU216DAVISVP2,2013-06-29 06:36:00,
2013-06-29 01:41:00,65.3,58.0,29.87,SSW,202,0.0,0.0,77,0.00,,,0.00,WUHU216DAVISVP2,2013-06-29 06:41:00,
2013-06-29 01:46:00,65.3,58.0,29.87,SSW,203,0.0,0.0,77,0.00,,,0.00,WUHU216DAVISVP2,2013-06-29 06:46:00,
2013-06-29 01:51:00,65.2,57.9,29.87,WNW,292,0.0,3.0,77,0.00,,,0.00,WUHU216DAVISVP2,2013-06-29 06:51:00,
2013-06-29 01:56:00,65.1,57.8,29.87,WNW,283,0.0,3.0,77,0.00,,,0.00,WUHU216DAVISVP2,2013-06-29 06:56:00,
2013-06-29 02:01:00,64.9,58.0,29.87,NW,311,0.0,4.0,78,0.00,,,0.00,WUHU216DAVISVP2,2013-06-29 07:01:00,
2013-06-29 02:06:00,64.8,58.2,29.87,NW,308,0.0,4.0,79,0.00,,,0.00,WUHU216DAVISVP2,2013-06-29 07:06:00,
2013-06-29 02:11:00,64.7,58.1,29.87,NW,305,0.0,0.0,79,0.00,,,0.00,WUHU216DAVISVP2,2013-06-29 07:11:00,
2013-06-29 02:16:00,64.6,58.0,29.87,NW,304,0.0,4.0,79,0.00,,,0.00,WUHU216DAVISVP2,2013-06-29 07:16:00,
2013-06-29 02:21:00,64.6,58.0,29.87,WNW,283,0.0,4.0,79,0.00,,,0.00,WUHU216DAVISVP2,2013-06-29 07:21:00,
2013-06-29 02:26:00,64.5,57.9,29.87,WNW,283,0.0,0.0,79,0.00,,,0.00,WUHU216DAVISVP2,2013-06-29 07:26:00,
2013-06-29 02:31:00,64.5,57.9,29.87,WNW,284,0.0,0.0,79,0.00,,,0.00,WUHU216DAVISVP2,2013-06-29 07:31:00,
2013-06-29 02:36:00,64.5,57.9,29.87,NW,307,0.0,3.0,79,0.00,,,0.00,WUHU216DAVISVP2,2013-06-29 07:36:00,
2013-06-29 02:41:00,64.5,57.9,29.87,NW,308,0.0,3.0,79,0.00,,,0.00,WUHU216DAVISVP2,2013-06-29 07:41:00,
2013-06-29 02:46:00,64.4,57.8,29.87,NW,308,0.0,0.0,79,0.00,,,0.00,WUHU216DAVISVP2,2013-06-29 07:46:00,
2013-06-29 02:51:00,64.4,57.8,29.87,NW,306,0.0,0.0,79,0.00,,,0.00,WUHU216DAVISVP2,2013-06-29 07:51:00,
2013-06-29 02:56:00,64.3,58.1,29.87,NW,306,0.0,0.0,80,0.00,,,0.00,WUHU216DAVISVP2,2013-06-29 07:56:00,
2013-06-29 03:01:00,64.2,58.0,29.87,WNW,301,0.0,1.0,80,0.00,,,0.00,WUHU216DAVISVP2,2013-06-29 08:01:00,
2013-06-29 03:06:00,64.2,58.0,29.87,WNW,301,0.0,1.0,80,0.00,,,0.00,WUHU216DAVISVP2,2013-06-29 08:06:00,
2013-06-29 03:11:00,64.2,58.0,29.87,WNW,300,0.0,0.0,80,0.00,,,0.00,WUHU216DAVISVP2,2013-06-29 08:11:00,
2013-06-29 03:16:00,64.1,58.2,29.87,WNW,301,0.0,0.0,81,0.00,,,0.00,WUHU216DAVISVP2,2013-06-29 08:16:00,
2013-06-29 03:21:00,64.1,58.2,29.87,WNW,297,0.0,2.0,81,0.00,,,0.00,WUHU216DAVISVP2,2013-06-29 08:21:00,
2013-06-29 03:26:00,64.0,58.1,29.87,WNW,297,0.0,2.0,81,0.00,,,0.00,WUHU216DAVISVP2,2013-06-29 08:26:00,
2013-06-29 03:31:00,63.9,58.0,29.87,WNW,296,0.0,0.0,81,0.00,,,0.00,WUHU216DAVISVP2,2013-06-29 08:31:00,
2013-06-29 03:36:00,63.8,57.9,29.87,WNW,297,0.0,0.0,81,0.00,,,0.00,WUHU216DAVISVP2,2013-06-29 08:36:00,
2013-06-29 03:41:00,63.7,57.8,29.87,WNW,297,0.0,0.0,81,0.00,,,0.00,WUHU216DAVISVP2,2013-06-29 08:41:00,
2013-06-29 03:46:00,63.5,58.0,29.88,WNW,297,0.0,0.0,82,0.00,,,0.00,WUHU216DAVISVP2,2013-06-29 08:46:00,
2013-06-29 03:51:00,63.3,57.8,29.88,WNW,296,0.0,0.0,82,0.00,,,0.00,WUHU216DAVISVP2,2013-06-29 08:51:00,
2013-06-29 03:56:00,63.2,57.7,29.88,WNW,297,0.0,0.0,82,0.00,,,0.00,WUHU216DAVISVP2,2013-06-29 08:56:00,
2013-06-29 04:01:00,63.2,57.7,29.88,NW,321,0.0,1.0,82,0.00,,,0.00,WUHU216DAVISVP2,2013-06-29 09:01:00,
2013-06-29 04:06:00,63.2,58.0,29.88,West,269,0.0,4.0,83,0.00,,,0.00,WUHU216DAVISVP2,2013-06-29 09:06:00,
2013-06-29 04:11:00,63.1,57.9,29.88,West,269,0.0,4.0,83,0.00,,,0.00,WUHU216DAVISVP2,2013-06-29 09:11:00,
2013-06-29 04:16:00,62.9,57.7,29.89,West,279,0.0,3.0,83,0.00,,,0.00,WUHU216DAVISVP2,2013-06-29 09:16:00,
2013-06-29 04:21:00,62.7,57.5,29.89,West,276,0.0,4.0,83,0.00,,,0.00,WUHU216DAVISVP2,2013-06-29 09:21:00,
2013-06-29 04:26:00,62.5,57.3,29.89,West,276,0.0,4.0,83,0.00,,,0.00,WUHU216DAVISVP2,2013-06-29 09:26:00,
2013-06-29 04:31:00,62.3,57.1,29.89,West,276,0.0,0.0,83,0.00,,,0.00,WUHU216DAVISVP2,2013-06-29 09:31:00,
2013-06-29 04:36:00,62.2,57.3,29.89,West,276,0.0,0.0,84,0.00,,,0.00,WUHU216DAVISVP2,2013-06-29 09:36:00,
2013-06-29 04:41:00,62.2,57.3,29.89,West,276,0.0,0.0,84,0.00,,,0.00,WUHU216DAVISVP2,2013-06-29 09:41:00,
2013-06-29 04:46:00,62.2,57.3,29.90,West,276,0.0,0.0,84,0.00,,,0.00,WUHU216DAVISVP2,2013-06-29 09:46:00,
2013-06-29 04:51:00,62.3,57.4,29.90,West,276,0.0,0.0,84,0.00,,,0.00,WUHU216DAVISVP2,2013-06-29 09:51:00,
2013-06-29 04:56:00,62.4,57.5,29.90,West,276,0.0,0.0,84,0.00,,,0.00,WUHU216DAVISVP2,2013-06-29 09:56:00,
2013-06-29 05:01:00,62.4,57.5,29.90,West,276,0.0,0.0,84,0.00,,,0.00,WUHU216DAVISVP2,2013-06-29 10:01:00,
2013-06-29 05:06:00,62.5,57.6,29.90,West,276,0.0,0.0,84,0.00,,,0.00,WUHU216DAVISVP2,2013-06-29 10:06:00,
2013-06-29 05:11:00,62.4,57.2,29.90,West,277,0.0,0.0,83,0.00,,,0.00,WUHU216DAVISVP2,2013-06-29 10:11:00,
2013-06-29 05:16:00,62.4,57.2,29.90,West,277,0.0,0.0,83,0.00,,,0.00,WUHU216DAVISVP2,2013-06-29 10:16:00,
2013-06-29 05:21:00,62.3,57.4,29.90,West,277,0.0,0.0,84,0.00,,,0.00,WUHU216DAVISVP2,2013-06-29 10:21:00,
2013-06-29 05:26:00,62.2,57.3,29.91,West,276,0.0,0.0,84,0.00,,,0.00,WUHU216DAVISVP2,2013-06-29 10:26:00,
2013-06-29 05:31:00,62.2,57.3,29.91,West,277,0.0,0.0,84,0.00,,,0.00,WUHU216DAVISVP2,2013-06-29 10:31:00,
2013-06-29 05:36:00,62.2,57.3,29.91,West,277,0.0,0.0,84,0.00,,,0.00,WUHU216DAVISVP2,2013-06-29 10:36:00,
2013-06-29 05:41:00,62.2,57.3,29.91,West,276,0.0,0.0,84,0.00,,,0.00,WUHU216DAVISVP2,2013-06-29 10:41:00,
2013-06-29 05:46:00,62.2,57.3,29.91,West,277,0.0,0.0,84,0.00,,,0.00,WUHU216DAVISVP2,2013-06-29 10:46:00,
2013-06-29 05:51:00,62.2,57.3,29.91,West,277,0.0,0.0,84,0.00,,,0.00,WUHU216DAVISVP2,2013-06-29 10:51:00,
2013-06-29 05:56:00,62.2,57.3,29.92,West,276,0.0,1.0,84,0.00,,,0.00,WUHU216DAVISVP2,2013-06-29 10:56:00,
2013-06-29 06:01:00,62.2,57.3,29.91,West,276,0.0,1.0,84,0.00,,,0.00,WUHU216DAVISVP2,2013-06-29 11:01:00,
2013-06-29 06:06:00,62.1,57.2,29.92,West,276,0.0,2.0,84,0.00,,,0.00,WUHU216DAVISVP2,2013-06-29 11:06:00,
2013-06-29 06:11:00,62.0,57.1,29.92,WNW,294,0.0,5.0,84,0.00,,,0.00,WUHU216DAVISVP2,2013-06-29 11:11:00,
2013-06-29 06:16:00,62.0,57.1,29.92,WNW,294,0.0,5.0,84,0.00,,,0.00,WUHU216DAVISVP2,2013-06-29 11:16:00,
2013-06-29 06:21:00,62.0,57.1,29.92,WNW,294,0.0,0.0,84,0.00,,,0.00,WUHU216DAVISVP2,2013-06-29 11:21:00,
2013-06-29 06:26:00,62.0,57.1,29.92,WNW,294,0.0,0.0,84,0.00,,,0.00,WUHU216DAVISVP2,2013-06-29 11:26:00,
2013-06-29 06:31:00,62.1,57.2,29.93,WNW,294,0.0,0.0,84,0.00,,,0.00,WUHU216DAVISVP2,2013-06-29 11:31:00,
2013-06-29 06:36:00,62.2,57.6,29.93,NW,306,0.0,0.0,85,0.00,,,0.00,WUHU216DAVISVP2,2013-06-29 11:36:00,
2013-06-29 06:41:00,62.2,57.6,29.93,NW,306,0.0,0.0,85,0.00,,,0.00,WUHU216DAVISVP2,2013-06-29 11:41:00,
2013-06-29 06:46:00,62.2,57.6,29.93,NW,306,0.0,0.0,85,0.00,,,0.00,WUHU216DAVISVP2,2013-06-29 11:46:00,
2013-06-29 06:51:00,62.2,57.6,29.94,WNW,301,0.0,0.0,85,0.00,,,0.00,WUHU216DAVISVP2,2013-06-29 11:51:00,
2013-06-29 06:56:00,62.1,57.2,29.94,WNW,300,0.0,2.0,84,0.00,,,0.00,WUHU216DAVISVP2,2013-06-29 11:56:00,
2013-06-29 07:01:00,62.1,57.2,29.94,WNW,302,0.0,2.0,84,0.00,,,0.00,WUHU216DAVISVP2,2013-06-29 12:01:00,
2013-06-29 07:06:00,62.1,57.2,29.94,WNW,303,0.0,0.0,84,0.00,,,0.00,WUHU216DAVISVP2,2013-06-29 12:06:00,
2013-06-29 07:11:00,62.2,57.6,29.94,WNW,303,0.0,0.0,85,0.00,,,0.00,WUHU216DAVISVP2,2013-06-29 12:11:00,
2013-06-29 07:16:00,62.3,57.7,29.94,WNW,303,0.0,0.0,85,0.00,,,0.00,WUHU216DAVISVP2,2013-06-29 12:16:00,
2013-06-29 07:21:00,62.5,57.9,29.94,WNW,300,0.0,4.0,85,0.00,,,0.00,WUHU216DAVISVP2,2013-06-29 12:21:00,
2013-06-29 07:26:00,62.7,57.8,29.94,WNW,302,0.0,4.0,84,0.00,,,0.00,WUHU216DAVISVP2,2013-06-29 12:26:00,
2013-06-29 07:31:00,62.9,58.0,29.94,NNE,26,0.0,4.0,84,0.00,,,0.00,WUHU216DAVISVP2,2013-06-29 12:31:00,
2013-06-29 07:36:00,63.1,58.2,29.94,NNE,26,0.0,4.0,84,0.00,,,0.00,WUHU216DAVISVP2,2013-06-29 12:36:00,
2013-06-29 07:41:00,63.2,58.0,29.94,NNE,25,0.0,0.0,83,0.00,,,0.00,WUHU216DAVISVP2,2013-06-29 12:41:00,
2013-06-29 07:46:00,63.5,58.3,29.94,NNE,28,0.0,1.0,83,0.00,,,0.00,WUHU216DAVISVP2,2013-06-29 12:46:00,
2013-06-29 07:51:00,63.8,58.2,29.94,NNE,28,0.0,1.0,82,0.00,,,0.00,WUHU216DAVISVP2,2013-06-29 12:51:00,
2013-06-29 07:56:00,64.0,58.4,29.94,NNE,28,0.0,3.0,82,0.00,,,0.00,WUHU216DAVISVP2,2013-06-29 12:56:00,
2013-06-29 08:01:00,64.2,58.6,29.94,NNE,26,0.0,5.0,82,0.00,,,0.00,WUHU216DAVISVP2,2013-06-29 13:01:00,
2013-06-29 08:06:00,64.2,58.6,29.95,NNE,26,0.0,5.0,82,0.00,,,0.00,WUHU216DAVISVP2,2013-06-29 13:06:00,
2013-06-29 08:11:00,64.3,58.4,29.95,NW,325,0.0,3.0,81,0.00,,,0.00,WUHU216DAVISVP2,2013-06-29 13:11:00,
2013-06-29 08:16:00,64.4,58.5,29.95,NE,38,0.0,3.0,81,0.00,,,0.00,WUHU216DAVISVP2,2013-06-29 13:16:00,
2013-06-29 08:21:00,64.6,58.7,29.95,NE,34,0.0,6.0,81,0.00,,,0.00,WUHU216DAVISVP2,2013-06-29 13:21:00,
2013-06-29 08:26:00,64.8,58.9,29.95,NNE,28,0.0,6.0,81,0.00,,,0.00,WUHU216DAVISVP2,2013-06-29 13:26:00,
2013-06-29 08:31:00,65.3,59.0,29.95,NNE,14,0.0,4.0,80,0.00,,,0.00,WUHU216DAVISVP2,2013-06-29 13:31:00,
2013-06-29 08:36:00,65.8,59.2,29.95,North,5,0.0,4.0,79,0.00,,,0.00,WUHU216DAVISVP2,2013-06-29 13:36:00,
2013-06-29 08:41:00,65.8,58.8,29.95,NNE,19,0.0,4.0,78,0.00,,,0.00,WUHU216DAVISVP2,2013-06-29 13:41:00,
2013-06-29 08:46:00,65.8,58.8,29.95,North,360,0.0,4.0,78,0.00,,,0.00,WUHU216DAVISVP2,2013-06-29 13:46:00,
2013-06-29 08:51:00,65.7,58.7,29.96,NNE,25,0.0,4.0,78,0.00,,,0.00,WUHU216DAVISVP2,2013-06-29 13:51:00,
2013-06-29 08:56:00,65.5,58.9,29.96,NNE,29,0.0,4.0,79,0.00,,,0.00,WUHU216DAVISVP2,2013-06-29 13:56:00,
2013-06-29 09:01:00,65.4,58.8,29.96,NE,34,0.0,3.0,79,0.00,,,0.00,WUHU216DAVISVP2,2013-06-29 14:01:00,
2013-06-29 09:06:00,65.3,58.7,29.96,NNE,17,0.0,4.0,79,0.00,,,0.00,WUHU216DAVISVP2,2013-06-29 14:06:00,
2013-06-29 09:11:00,65.3,58.7,29.96,NNE,18,4.0,4.0,79,0.00,,,0.00,WUHU216DAVISVP2,2013-06-29 14:11:00,
2013-06-29 09:16:00,65.1,58.5,29.96,North,5,0.0,9.0,79,0.00,,,0.00,WUHU216DAVISVP2,2013-06-29 14:16:00,
2013-06-29 09:21:00,65.2,58.6,29.96,North,5,0.0,9.0,79,0.00,,,0.00,WUHU216DAVISVP2,2013-06-29 14:21:00,
2013-06-29 09:26:00,65.4,58.5,29.96,NNE,14,0.0,7.0,78,0.00,,,0.00,WUHU216DAVISVP2,2013-06-29 14:26:00,
2013-06-29 09:31:00,66.0,59.4,29.96,NNE,14,0.0,7.0,79,0.00,,,0.00,WUHU216DAVISVP2,2013-06-29 14:31:00,
2013-06-29 09:36:00,66.2,58.9,29.96,North,11,0.0,5.0,77,0.00,,,0.00,WUHU216DAVISVP2,2013-06-29 14:36:00,
2013-06-29 09:41:00,66.5,59.5,29.96,North,11,0.0,5.0,78,0.00,,,0.00,WUHU216DAVISVP2,2013-06-29 14:41:00,
2013-06-29 09:46:00,66.8,59.1,29.96,NNE,26,0.0,4.0,76,0.00,,,0.00,WUHU216DAVISVP2,2013-06-29 14:46:00,
2013-06-29 09:51:00,66.9,59.2,29.96,NNE,26,1.0,5.0,76,0.00,,,0.00,WUHU216DAVISVP2,2013-06-29 14:51:00,
2013-06-29 09:56:00,66.9,58.8,29.96,North,355,0.0,7.0,75,0.00,,,0.00,WUHU216DAVISVP2,2013-06-29 14:56:00,
2013-06-29 10:01:00,67.9,60.2,29.96,NNE,17,0.0,7.0,76,0.00,,,0.00,WUHU216DAVISVP2,2013-06-29 15:01:00,
2013-06-29 10:06:00,68.9,60.0,29.96,North,10,0.0,3.0,73,0.00,,,0.00,WUHU216DAVISVP2,2013-06-29 15:06:00,
2013-06-29 10:11:00,69.7,60.4,29.96,WNW,296,0.0,5.0,72,0.00,,,0.00,WUHU216DAVISVP2,2013-06-29 15:11:00,
2013-06-29 10:16:00,70.2,60.1,29.96,NNE,15,0.0,5.0,70,0.00,,,0.00,WUHU216DAVISVP2,2013-06-29 15:16:00,
2013-06-29 10:21:00,69.7,59.7,29.96,NNE,16,0.0,3.0,70,0.00,,,0.00,WUHU216DAVISVP2,2013-06-29 15:21:00,
2013-06-29 10:26:00,69.7,59.7,29.96,NNE,21,0.0,6.0,70,0.00,,,0.00,WUHU216DAVISVP2,2013-06-29 15:26:00,
2013-06-29 10:31:00,70.4,60.3,29.96,West,265,0.0,6.0,70,0.00,,,0.00,WUHU216DAVISVP2,2013-06-29 15:31:00,
2013-06-29 10:36:00,70.9,60.8,29.96,WNW,294,0.0,4.0,70,0.00,,,0.00,WUHU216DAVISVP2,2013-06-29 15:36:00,
2013-06-29 10:41:00,71.5,60.6,29.96,NNW,348,0.0,4.0,68,0.00,,,0.00,WUHU216DAVISVP2,2013-06-29 15:41:00,
2013-06-29 10:46:00,72.2,60.0,29.96,WNW,299,0.0,4.0,65,0.00,,,0.00,WUHU216DAVISVP2,2013-06-29 15:46:00,
2013-06-29 10:51:00,72.8,60.1,29.96,NNE,14,5.0,5.0,64,0.00,,,0.00,WUHU216DAVISVP2,2013-06-29 15:51:00,
2013-06-29 10:56:00,72.0,59.4,29.96,North,9,4.0,7.0,64,0.00,,,0.00,WUHU216DAVISVP2,2013-06-29 15:56:00,
2013-06-29 11:01:00,72.3,59.6,29.96,NNE,19,0.0,7.0,64,0.00,,,0.00,WUHU216DAVISVP2,2013-06-29 16:01:00,
2013-06-29 11:06:00,72.5,59.8,29.96,NNE,25,0.0,6.0,64,0.00,,,0.00,WUHU216DAVISVP2,2013-06-29 16:06:00,
2013-06-29 11:11:00,72.8,60.1,29.96,NE,39,0.0,6.0,64,0.00,,,0.00,WUHU216DAVISVP2,2013-06-29 16:11:00,
2013-06-29 11:16:00,73.0,59.4,29.95,NNE,15,0.0,6.0,62,0.00,,,0.00,WUHU216DAVISVP2,2013-06-29 16:16:00,
2013-06-29 11:21:00,73.5,60.3,29.95,WSW,245,0.0,5.0,63,0.00,,,0.00,WUHU216DAVISVP2,2013-06-29 16:21:00,
2013-06-29 11:26:00,73.9,60.7,29.95,NNW,344,0.0,4.0,63,0.00,,,0.00,WUHU216DAVISVP2,2013-06-29 16:26:00,
2013-06-29 11:31:00,74.7,60.6,29.95,North,5,0.0,4.0,61,0.00,,,0.00,WUHU216DAVISVP2,2013-06-29 16:31:00,
2013-06-29 11:36:00,74.1,60.5,29.95,WNW,300,0.0,7.0,62,0.00,,,0.00,WUHU216DAVISVP2,2013-06-29 16:36:00,
2013-06-29 11:41:00,74.0,60.4,29.95,West,277,0.0,7.0,62,0.00,,,0.00,WUHU216DAVISVP2,2013-06-29 16:41:00,
2013-06-29 11:46:00,74.6,60.9,29.95,North,10,6.0,6.0,62,0.00,,,0.00,WUHU216DAVISVP2,2013-06-29 16:46:00,
2013-06-29 11:51:00,74.6,60.9,29.95,NNE,22,1.0,6.0,62,0.00,,,0.00,WUHU216DAVISVP2,2013-06-29 16:51:00,
2013-06-29 11:56:00,74.7,61.0,29.95,WSW,249,1.0,6.0,62,0.00,,,0.00,WUHU216DAVISVP2,2013-06-29 16:56:00,
2013-06-29 12:01:00,75.2,61.0,29.95,West,271,0.0,4.0,61,0.00,,,0.00,WUHU216DAVISVP2,2013-06-29 17:01:00,
2013-06-29 12:06:00,75.7,61.5,29.95,North,360,3.0,6.0,61,0.00,,,0.00,WUHU216DAVISVP2,2013-06-29 17:06:00,
2013-06-29 12:11:00,76.3,62.1,29.95,West,281,0.0,6.0,61,0.00,,,0.00,WUHU216DAVISVP2,2013-06-29 17:11:00,
2013-06-29 12:16:00,76.7,60.5,29.95,West,261,3.0,5.0,57,0.00,,,0.00,WUHU216DAVISVP2,2013-06-29 17:16:00,
2013-06-29 12:21:00,76.8,60.1,29.95,NNE,19,0.0,6.0,56,0.00,,,0.00,WUHU216DAVISVP2,2013-06-29 17:21:00,
2013-06-29 12:26:00,76.2,60.0,29.95,NNE,29,0.0,9.0,57,0.00,,,0.00,WUHU216DAVISVP2,2013-06-29 17:26:00,
2013-06-29 12:31:00,76.3,60.6,29.95,North,360,0.0,9.0,58,0.00,,,0.00,WUHU216DAVISVP2,2013-06-29 17:31:00,
2013-06-29 12:36:00,77.1,60.9,29.95,NNE,14,0.0,5.0,57,0.00,,,0.00,WUHU216DAVISVP2,2013-06-29 17:36:00,
2013-06-29 12:41:00,77.2,60.5,29.95,North,355,0.0,12.0,56,0.00,,,0.00,WUHU216DAVISVP2,2013-06-29 17:41:00,
2013-06-29 12:46:00,77.4,60.1,29.95,NNE,28,0.0,12.0,55,0.00,,,0.00,WUHU216DAVISVP2,2013-06-29 17:46:00,
2013-06-29 12:51:00,77.2,60.0,29.95,NNE,20,0.0,9.0,55,0.00,,,0.00,WUHU216DAVISVP2,2013-06-29 17:51:00,
2013-06-29 12:56:00,77.4,59.1,29.95,North,5,5.0,13.0,53,0.00,,,0.00,WUHU216DAVISVP2,2013-06-29 17:56:00,
2013-06-29 13:01:00,77.4,59.1,29.95,North,355,2.0,13.0,53,0.00,,,0.00,WUHU216DAVISVP2,2013-06-29 18:01:00,
2013-06-29 13:06:00,77.6,58.7,29.95,NNE,21,0.0,7.0,52,0.00,,,0.00,WUHU216DAVISVP2,2013-06-29 18:06:00,
2013-06-29 13:11:00,78.0,59.6,29.95,NE,38,0.0,6.0,53,0.00,,,0.00,WUHU216DAVISVP2,2013-06-29 18:11:00,
2013-06-29 13:16:00,77.9,59.0,29.95,NNE,15,0.0,10.0,52,0.00,,,0.00,WUHU216DAVISVP2,2013-06-29 18:16:00,
2013-06-29 13:21:00,78.2,59.3,29.95,NNE,14,6.0,10.0,52,0.00,,,0.00,WUHU216DAVISVP2,2013-06-29 18:21:00,
2013-06-29 13:26:00,78.7,60.3,29.95,East,94,0.0,11.0,53,0.00,,,0.00,WUHU216DAVISVP2,2013-06-29 18:26:00,
2013-06-29 13:31:00,78.7,58.6,29.95,East,91,0.0,11.0,50,0.00,,,0.00,WUHU216DAVISVP2,2013-06-29 18:31:00,
2013-06-29 13:36:00,78.9,61.0,29.95,North,5,0.0,10.0,54,0.00,,,0.00,WUHU216DAVISVP2,2013-06-29 18:36:00,
2013-06-29 13:41:00,78.7,58.6,29.95,NNE,18,0.0,13.0,50,0.00,,,0.00,WUHU216DAVISVP2,2013-06-29 18:41:00,
2013-06-29 13:46:00,78.8,58.7,29.95,NNE,24,0.0,13.0,50,0.00,,,0.00,WUHU216DAVISVP2,2013-06-29 18:46:00,
2013-06-29 13:51:00,79.2,60.2,29.94,NNE,18,0.0,11.0,52,0.00,,,0.00,WUHU216DAVISVP2,2013-06-29 18:51:00,
2013-06-29 13:56:00,79.1,60.1,29.94,North,350,5.0,11.0,52,0.00,,,0.00,WUHU216DAVISVP2,2013-06-29 18:56:00,
2013-06-29 14:01:00,79.2,59.1,29.94,NNE,21,0.0,16.0,50,0.00,,,0.00,WUHU216DAVISVP2,2013-06-29 19:01:00,
2013-06-29 14:06:00,79.5,59.3,29.94,NNE,14,0.0,16.0,50,0.00,,,0.00,WUHU216DAVISVP2,2013-06-29 19:06:00,
2013-06-29 14:11:00,79.3,59.2,29.94,NNE,18,0.0,7.0,50,0.00,,,0.00,WUHU216DAVISVP2,2013-06-29 19:11:00,
2013-06-29 14:16:00,79.0,58.9,29.94,NE,36,0.0,10.0,50,0.00,,,0.00,WUHU216DAVISVP2,2013-06-29 19:16:00,
2013-06-29 14:21:00,79.1,58.4,29.94,North,11,2.0,13.0,49,0.00,,,0.00,WUHU216DAVISVP2,2013-06-29 19:21:00,
2013-06-29 14:26:00,79.3,58.6,29.94,North,9,0.0,13.0,49,0.00,,,0.00,WUHU216DAVISVP2,2013-06-29 19:26:00,
2013-06-29 14:31:00,79.7,58.9,29.94,NNE,17,4.0,6.0,49,0.00,,,0.00,WUHU216DAVISVP2,2013-06-29 19:31:00,
2013-06-29 14:36:00,79.2,59.1,29.94,NNE,19,10.0,11.0,50,0.00,,,0.00,WUHU216DAVISVP2,2013-06-29 19:36:00,
2013-06-29 14:41:00,79.0,58.9,29.94,NNE,22,2.0,11.0,50,0.00,,,0.00,WUHU216DAVISVP2,2013-06-29 19:41:00,
2013-06-29 14:46:00,79.5,58.2,29.94,NNE,15,7.0,10.0,48,0.00,,,0.00,WUHU216DAVISVP2,2013-06-29 19:46:00,
2013-06-29 14:51:00,79.4,58.7,29.94,NNE,25,1.0,11.0,49,0.00,,,0.00,WUHU216DAVISVP2,2013-06-29 19:51:00,
2013-06-29 14:56:00,79.7,57.7,29.94,NNE,29,3.0,13.0,47,0.00,,,0.00,WUHU216DAVISVP2,2013-06-29 19:56:00,
2013-06-29 15:01:00,80.0,59.2,29.94,NNE,24,3.0,13.0,49,0.00,,,0.00,WUHU216DAVISVP2,2013-06-29 20:01:00,
2013-06-29 15:06:00,80.6,59.8,29.94,North,360,0.0,7.0,49,0.00,,,0.00,WUHU216DAVISVP2,2013-06-29 20:06:00,
2013-06-29 15:11:00,80.1,58.1,29.94,NNE,18,0.0,7.0,47,0.00,,,0.00,WUHU216DAVISVP2,2013-06-29 20:11:00,
2013-06-29 15:16:00,79.9,57.9,29.94,NW,315,2.0,7.0,47,0.00,,,0.00,WUHU216DAVISVP2,2013-06-29 20:16:00,
2013-06-29 15:21:00,80.3,58.9,29.94,WNW,284,0.0,7.0,48,0.00,,,0.00,WUHU216DAVISVP2,2013-06-29 20:21:00,
2013-06-29 15:26:00,81.0,58.9,29.94,West,263,6.0,6.0,47,0.00,,,0.00,WUHU216DAVISVP2,2013-06-29 20:26:00,
2013-06-29 15:31:00,81.2,57.2,29.94,North,5,0.0,6.0,44,0.00,,,0.00,WUHU216DAVISVP2,2013-06-29 20:31:00,
2013-06-29 15:36:00,81.0,55.7,29.94,NNE,17,0.0,10.0,42,0.00,,,0.00,WUHU216DAVISVP2,2013-06-29 20:36:00,
2013-06-29 15:41:00,81.1,57.1,29.94,North,5,10.0,13.0,44,0.00,,,0.00,WUHU216DAVISVP2,2013-06-29 20:41:00,
2013-06-29 15:46:00,80.9,55.6,29.94,NNE,24,2.0,13.0,42,0.00,,,0.00,WUHU216DAVISVP2,2013-06-29 20:46:00,
2013-06-29 15:51:00,81.1,57.8,29.94,NNE,30,1.0,13.0,45,0.00,,,0.00,WUHU216DAVISVP2,2013-06-29 20:51:00,
2013-06-29 15:56:00,80.8,55.5,29.94,NE,55,1.0,11.0,42,0.00,,,0.00,WUHU216DAVISVP2,2013-06-29 20:56:00,
2013-06-29 16:01:00,80.4,56.5,29.94,NW,326,2.0,12.0,44,0.00,,,0.00,WUHU216DAVISVP2,2013-06-29 21:01:00,
2013-06-29 16:06:00,81.1,59.0,29.94,NE,45,2.0,12.0,47,0.00,,,0.00,WUHU216DAVISVP2,2013-06-29 21:06:00,
2013-06-29 16:11:00,80.4,56.5,29.94,NNE,26,0.0,11.0,44,0.00,,,0.00,WUHU216DAVISVP2,2013-06-29 21:11:00,
2013-06-29 16:16:00,80.7,55.4,29.94,North,360,3.0,11.0,42,0.00,,,0.00,WUHU216DAVISVP2,2013-06-29 21:16:00,
2013-06-29 16:21:00,80.9,56.3,29.94,NNE,15,4.0,15.0,43,0.00,,,0.00,WUHU216DAVISVP2,2013-06-29 21:21:00,
2013-06-29 16:26:00,81.1,56.5,29.94,NNE,24,2.0,15.0,43,0.00,,,0.00,WUHU216DAVISVP2,2013-06-29 21:26:00,
2013-06-29 16:31:00,81.0,57.0,29.94,NNE,30,3.0,9.0,44,0.00,,,0.00,WUHU216DAVISVP2,2013-06-29 21:31:00,
2013-06-29 16:36:00,81.2,55.9,29.94,NE,34,0.0,11.0,42,0.00,,,0.00,WUHU216DAVISVP2,2013-06-29 21:36:00,
2013-06-29 16:41:00,81.0,55.0,29.94,NNE,22,1.0,14.0,41,0.00,,,0.00,WUHU216DAVISVP2,2013-06-29 21:41:00,
2013-06-29 16:46:00,81.4,56.7,29.94,WNW,282,1.0,14.0,43,0.00,,,0.00,WUHU216DAVISVP2,2013-06-29 21:46:00,
2013-06-29 16:51:00,81.6,56.3,29.93,NE,34,2.0,4.0,42,0.00,,,0.00,WUHU216DAVISVP2,2013-06-29 21:51:00,
2013-06-29 16:56:00,81.3,55.3,29.94,NNE,27,3.0,16.0,41,0.00,,,0.00,WUHU216DAVISVP2,2013-06-29 21:56:00,
2013-06-29 17:01:00,80.9,54.9,29.94,NNE,30,1.0,16.0,41,0.00,,,0.00,WUHU216DAVISVP2,2013-06-29 22:01:00,
2013-06-29 17:06:00,80.9,54.9,29.93,NE,34,7.0,14.0,41,0.00,,,0.00,WUHU216DAVISVP2,2013-06-29 22:06:00,
2013-06-29 17:11:00,81.0,56.4,29.93,NNW,329,0.0,14.0,43,0.00,,,0.00,WUHU216DAVISVP2,2013-06-29 22:11:00,
2013-06-29 17:16:00,81.4,57.4,29.93,ESE,103,0.0,6.0,44,0.00,,,0.00,WUHU216DAVISVP2,2013-06-29 22:16:00,
2013-06-29 17:21:00,82.0,57.3,29.94,NNE,17,0.0,4.0,43,0.00,,,0.00,WUHU216DAVISVP2,2013-06-29 22:21:00,
2013-06-29 17:26:00,81.7,57.0,29.93,North,11,0.0,5.0,43,0.00,,,0.00,WUHU216DAVISVP2,2013-06-29 22:26:00,
2013-06-29 17:31:00,81.6,55.6,29.94,NNE,15,3.0,11.0,41,0.00,,,0.00,WUHU216DAVISVP2,2013-06-29 22:31:00,
2013-06-29 17:36:00,81.3,56.7,29.94,NNE,28,0.0,11.0,43,0.00,,,0.00,WUHU216DAVISVP2,2013-06-29 22:36:00,
2013-06-29 17:41:00,81.7,57.7,29.94,NNE,22,0.0,10.0,44,0.00,,,0.00,WUHU216DAVISVP2,2013-06-29 22:41:00,
2013-06-29 17:46:00,81.4,56.7,29.94,North,10,0.0,5.0,43,0.00,,,0.00,WUHU216DAVISVP2,2013-06-29 22:46:00,
2013-06-29 17:51:00,81.2,57.2,29.94,North,11,5.0,5.0,44,0.00,,,0.00,WUHU216DAVISVP2,2013-06-29 22:51:00,
2013-06-29 17:56:00,81.0,56.4,29.94,North,11,0.0,8.0,43,0.00,,,0.00,WUHU216DAVISVP2,2013-06-29 22:56:00,
2013-06-29 18:01:00,80.9,56.3,29.94,North,10,3.0,10.0,43,0.00,,,0.00,WUHU216DAVISVP2,2013-06-29 23:01:00,
2013-06-29 18:06:00,81.2,56.6,29.94,NNE,25,6.0,10.0,43,0.00,,,0.00,WUHU216DAVISVP2,2013-06-29 23:06:00,
2013-06-29 18:11:00,80.8,56.9,29.93,NNE,24,0.0,14.0,44,0.00,,,0.00,WUHU216DAVISVP2,2013-06-29 23:11:00,
2013-06-29 18:16:00,80.9,57.6,29.93,North,360,2.0,14.0,45,0.00,,,0.00,WUHU216DAVISVP2,2013-06-29 23:16:00,
2013-06-29 18:21:00,81.0,57.7,29.94,NNE,23,0.0,10.0,45,0.00,,,0.00,WUHU216DAVISVP2,2013-06-29 23:21:00,
2013-06-29 18:26:00,81.0,57.0,29.94,NNE,21,0.0,6.0,44,0.00,,,0.00,WUHU216DAVISVP2,2013-06-29 23:26:00,
2013-06-29 18:31:00,81.1,57.1,29.94,NNE,14,0.0,7.0,44,0.00,,,0.00,WUHU216DAVISVP2,2013-06-29 23:31:00,
2013-06-29 18:36:00,80.9,57.6,29.93,NE,40,2.0,12.0,45,0.00,,,0.00,WUHU216DAVISVP2,2013-06-29 23:36:00,
2013-06-29 18:41:00,80.9,56.9,29.93,NNE,26,0.0,12.0,44,0.00,,,0.00,WUHU216DAVISVP2,2013-06-29 23:41:00,
2013-06-29 18:46:00,81.0,57.7,29.93,NNE,29,1.0,5.0,45,0.00,,,0.00,WUHU216DAVISVP2,2013-06-29 23:46:00,
2013-06-29 18:51:00,80.7,56.8,29.94,NNE,13,4.0,9.0,44,0.00,,,0.00,WUHU216DAVISVP2,2013-06-29 23:51:00,
2013-06-29 18:56:00,80.6,56.7,29.94,NNE,17,1.0,9.0,44,0.00,,,0.00,WUHU216DAVISVP2,2013-06-29 23:56:00,
2013-06-29 19:01:00,80.8,57.5,29.93,NNE,19,5.0,7.0,45,0.00,,,0.00,WUHU216DAVISVP2,2013-06-30 00:01:00,
2013-06-29 19:06:00,80.9,57.6,29.94,North,9,0.0,7.0,45,0.00,,,0.00,WUHU216DAVISVP2,2013-06-30 00:06:00,
2013-06-29 19:11:00,80.9,57.6,29.94,NNE,18,1.0,5.0,45,0.00,,,0.00,WUHU216DAVISVP2,2013-06-30 00:11:00,
2013-06-29 19:16:00,80.7,56.8,29.94,NNE,32,0.0,5.0,44,0.00,,,0.00,WUHU216DAVISVP2,2013-06-30 00:16:00,
2013-06-29 19:21:00,80.3,58.3,29.94,NNE,21,4.0,12.0,47,0.00,,,0.00,WUHU216DAVISVP2,2013-06-30 00:21:00,
2013-06-29 19:26:00,79.9,58.5,29.94,NNE,21,0.0,12.0,48,0.00,,,0.00,WUHU216DAVISVP2,2013-06-30 00:26:00,
2013-06-29 19:31:00,79.7,57.7,29.94,North,11,0.0,11.0,47,0.00,,,0.00,WUHU216DAVISVP2,2013-06-30 00:31:00,
2013-06-29 19:36:00,79.8,58.4,29.94,NNE,24,2.0,7.0,48,0.00,,,0.00,WUHU216DAVISVP2,2013-06-30 00:36:00,
2013-06-29 19:41:00,79.6,58.9,29.94,NNE,19,2.0,6.0,49,0.00,,,0.00,WUHU216DAVISVP2,2013-06-30 00:41:00,
2013-06-29 19:46:00,79.3,58.6,29.93,NE,49,0.0,6.0,49,0.00,,,0.00,WUHU216DAVISVP2,2013-06-30 00:46:00,
2013-06-29 19:51:00,78.8,57.5,29.93,North,5,2.0,9.0,48,0.00,,,0.00,WUHU216DAVISVP2,2013-06-30 00:51:00,
2013-06-29 19:56:00,78.9,58.2,29.93,North,9,0.0,9.0,49,0.00,,,0.00,WUHU216DAVISVP2,2013-06-30 00:56:00,
2013-06-29 20:01:00,78.8,58.1,29.93,NNE,26,1.0,9.0,49,0.00,,,0.00,WUHU216DAVISVP2,2013-06-30 01:01:00,
2013-06-29 20:06:00,78.7,58.6,29.93,NNE,16,2.0,12.0,50,0.00,,,0.00,WUHU216DAVISVP2,2013-06-30 01:06:00,
2013-06-29 20:11:00,78.4,58.3,29.93,NNE,23,2.0,12.0,50,0.00,,,0.00,WUHU216DAVISVP2,2013-06-30 01:11:00,
2013-06-29 20:16:00,78.1,58.6,29.93,North,355,5.0,10.0,51,0.00,,,0.00,WUHU216DAVISVP2,2013-06-30 01:16:00,
2013-06-29 20:21:00,77.9,59.0,29.93,North,355,0.0,7.0,52,0.00,,,0.00,WUHU216DAVISVP2,2013-06-30 01:21:00,
2013-06-29 20:26:00,77.5,59.2,29.93,North,355,0.0,4.0,53,0.00,,,0.00,WUHU216DAVISVP2,2013-06-30 01:26:00,
2013-06-29 20:31:00,77.4,59.1,29.94,North,9,0.0,4.0,53,0.00,,,0.00,WUHU216DAVISVP2,2013-06-30 01:31:00,
2013-06-29 20:36:00,77.2,58.9,29.94,ENE,61,0.0,4.0,53,0.00,,,0.00,WUHU216DAVISVP2,2013-06-30 01:36:00,
2013-06-29 20:41:00,77.0,58.2,29.93,ENE,61,0.0,4.0,52,0.00,,,0.00,WUHU216DAVISVP2,2013-06-30 01:41:00,
2013-06-29 20:46:00,76.8,58.0,29.94,ENE,57,0.0,2.0,52,0.00,,,0.00,WUHU216DAVISVP2,2013-06-30 01:46:00,
2013-06-29 20:51:00,76.6,57.8,29.94,NE,50,0.0,2.0,52,0.00,,,0.00,WUHU216DAVISVP2,2013-06-30 01:51:00,
2013-06-29 20:56:00,76.4,57.6,29.94,NE,49,0.0,0.0,52,0.00,,,0.00,WUHU216DAVISVP2,2013-06-30 01:56:00,
2013-06-29 21:01:00,76.4,57.6,29.94,NE,49,0.0,0.0,52,0.00,,,0.00,WUHU216DAVISVP2,2013-06-30 02:01:00,
2013-06-29 21:06:00,76.2,58.0,29.94,NE,49,0.0,0.0,53,0.00,,,0.00,WUHU216DAVISVP2,2013-06-30 02:06:00,
2013-06-29 21:11:00,75.9,58.7,29.94,NE,49,0.0,0.0,55,0.00,,,0.00,WUHU216DAVISVP2,2013-06-30 02:11:00,
2013-06-29 21:16:00,75.6,58.5,29.94,NE,49,0.0,0.0,55,0.00,,,0.00,WUHU216DAVISVP2,2013-06-30 02:16:00,
2013-06-29 21:21:00,75.3,58.2,29.94,NE,49,0.0,1.0,55,0.00,,,0.00,WUHU216DAVISVP2,2013-06-30 02:21:00,
2013-06-29 21:26:00,75.1,58.5,29.94,NE,49,0.0,1.0,56,0.00,,,0.00,WUHU216DAVISVP2,2013-06-30 02:26:00,
2013-06-29 21:32:00,74.8,58.7,29.94,NE,49,0.0,0.0,57,0.00,,,0.00,WUHU216DAVISVP2,2013-06-30 02:32:00,
2013-06-29 21:36:00,74.5,58.4,29.95,NE,49,0.0,0.0,57,0.00,,,0.00,WUHU216DAVISVP2,2013-06-30 02:36:00,
2013-06-29 21:41:00,74.2,58.2,29.95,NE,49,0.0,0.0,57,0.00,,,0.00,WUHU216DAVISVP2,2013-06-30 02:41:00,
2013-06-29 21:46:00,74.0,58.5,29.95,NE,49,0.0,0.0,58,0.00,,,0.00,WUHU216DAVISVP2,2013-06-30 02:46:00,
2013-06-29 21:51:00,73.8,58.8,29.95,NE,49,0.0,0.0,59,0.00,,,0.00,WUHU216DAVISVP2,2013-06-30 02:51:00,
2013-06-29 21:56:00,73.4,58.4,29.95,NE,49,0.0,0.0,59,0.00,,,0.00,WUHU216DAVISVP2,2013-06-30 02:56:00,
2013-06-29 22:01:00,73.0,58.5,29.95,NE,49,0.0,0.0,60,0.00,,,0.00,WUHU216DAVISVP2,2013-06-30 03:01:00,
2013-06-29 22:07:00,72.5,58.5,29.96,NE,49,0.0,0.0,61,0.00,,,0.00,WUHU216DAVISVP2,2013-06-30 03:07:00,
2013-06-29 22:12:00,72.2,58.2,29.96,NE,49,0.0,0.0,61,0.00,,,0.00,WUHU216DAVISVP2,2013-06-30 03:12:00,
2013-06-29 22:17:00,72.1,58.6,29.96,NE,49,0.0,0.0,62,0.00,,,0.00,WUHU216DAVISVP2,2013-06-30 03:17:00,
2013-06-29 22:22:00,71.9,58.8,29.96,NE,49,0.0,0.0,63,0.00,,,0.00,WUHU216DAVISVP2,2013-06-30 03:22:00,
2013-06-29 22:27:00,71.8,58.7,29.96,NE,49,0.0,0.0,63,0.00,,,0.00,WUHU216DAVISVP2,2013-06-30 03:27:00,
2013-06-29 22:32:00,71.7,58.6,29.97,NE,49,0.0,0.0,63,0.00,,,0.00,WUHU216DAVISVP2,2013-06-30 03:32:00,
2013-06-29 22:37:00,71.4,58.8,29.97,NE,49,0.0,0.0,64,0.00,,,0.00,WUHU216DAVISVP2,2013-06-30 03:37:00,
2013-06-29 22:42:00,71.1,58.5,29.97,NE,49,0.0,0.0,64,0.00,,,0.00,WUHU216DAVISVP2,2013-06-30 03:42:00,
2013-06-29 22:47:00,70.8,58.6,29.97,NE,49,0.0,0.0,65,0.00,,,0.00,WUHU216DAVISVP2,2013-06-30 03:47:00,
2013-06-29 22:52:00,70.4,58.7,29.97,NE,49,0.0,0.0,66,0.00,,,0.00,WUHU216DAVISVP2,2013-06-30 03:52:00,
2013-06-29 22:57:00,70.1,58.8,29.97,NE,49,0.0,0.0,67,0.00,,,0.00,WUHU216DAVISVP2,2013-06-30 03:57:00,
2013-06-29 23:01:00,69.9,58.6,29.97,NE,49,0.0,0.0,67,0.00,,,0.00,WUHU216DAVISVP2,2013-06-30 04:01:00,
2013-06-29 23:06:00,69.7,58.9,29.97,NE,49,0.0,0.0,68,0.00,,,0.00,WUHU216DAVISVP2,2013-06-30 04:06:00,
2013-06-29 23:11:00,69.6,58.8,29.97,NE,49,0.0,0.0,68,0.00,,,0.00,WUHU216DAVISVP2,2013-06-30 04:11:00,
2013-06-29 23:16:00,69.5,59.1,29.98,NE,49,0.0,0.0,69,0.00,,,0.00,WUHU216DAVISVP2,2013-06-30 04:16:00,
2013-06-29 23:21:00,69.4,59.0,29.98,NE,49,0.0,0.0,69,0.00,,,0.00,WUHU216DAVISVP2,2013-06-30 04:21:00,
2013-06-29 23:26:00,69.2,58.8,29.98,NE,49,0.0,0.0,69,0.00,,,0.00,WUHU216DAVISVP2,2013-06-30 04:26:00,
2013-06-29 23:31:00,69.0,59.0,29.98,NE,49,0.0,0.0,70,0.00,,,0.00,WUHU216DAVISVP2,2013-06-30 04:31:00,
2013-06-29 23:36:00,68.8,58.8,29.98,NE,49,0.0,0.0,70,0.00,,,0.00,WUHU216DAVISVP2,2013-06-30 04:36:00,
2013-06-29 23:41:00,68.5,58.9,29.98,NE,49,0.0,0.0,71,0.00,,,0.00,WUHU216DAVISVP2,2013-06-30 04:41:00,
2013-06-29 23:46:00,68.4,58.8,29.98,NE,49,0.0,0.0,71,0.00,,,0.00,WUHU216DAVISVP2,2013-06-30 04:46:00,
2013-06-29 23:51:00,68.3,58.7,29.98,NE,49,0.0,0.0,71,0.00,,,0.00,WUHU216DAVISVP2,2013-06-30 04:51:00,
2013-06-29 23:56:00,68.3,58.7,29.98,NE,49,0.0,0.0,71,0.00,,,0.00,WUHU216DAVISVP2,2013-06-30 04:56:00,